Weather in Ternovka

Ukraine / Mykolaiv District     47°11′55″N   33°00′26″E
temp.,
°C
wind,
m/s
gust,
m/s
humid.,
%
clouds,
%
prec.,
mm/h
press.,
hPa
HPBL,
m
28 february, sun
sun2823:00+3nnw5992100 0.1 1020555
02:00+2nw499588 0.1 1020345
05:00+3nnw5995100 0.1 1020484
08:00+2nnw5997100 0.3 1022550
11:00+3nnw5984100 0.2 1023727
14:00+3nnw588799 0.4 1023652
17:00+4nw477494 0.1 1023731
20:00+2nw378297 0.1 1023524
1 march, mon
mon123:00+1wnw3584100 0.0 1023141
02:000w228998 0.0 102329
05:000wnw239271 0.0 102336
08:00+1nnw348745 0.0 1025218
11:00+4nne336830 0.0 1026814
14:00+4n456765 0.1 1028910
17:00+3n357091 0.1 1028382
20:00+1n357572 0.1 1030110
2 march, tue
tue223:00+1n227181 0.0 103130
02:00+1nnw238089 0.0 103185
05:00+1wnw2473100 0.0 1030113
08:00+2wsw3577100 0.0 1030211
11:00+6w676263 0.0 10291042
14:00+7w796181 0.0 1026943
17:00+6wsw7116532 0.0 1023740
20:00+5wsw7147816 0.0 1021437
3 march, wed
wed323:00+4w614850 0.0 1020382
02:00+4nnw7117538 0.0 1021794
05:00+4nnw71271100 0.0 10221105
08:00+3nnw7127568 0.0 1025935
11:00+6n710560 0.0 10261130
14:00+8nnw69480 0.0 10261399
17:00+7nnw37530 0.0 1026335
20:00+3ne22670 0.0 102722
4 march, thu
thu423:00+2sse22730 0.0 102723
02:00+1s34790 0.0 102664
05:000ssw34800 0.0 102570
08:00+3sw47680 0.0 1024280
11:00+8sw79530 0.0 10221005
14:00+9sw810560 0.0 1019988
17:00+7sw712650 0.0 1017766
20:00+4ssw6147913 0.0 1017538